Flag for Germany Weather past 2 weeks in Melle, Lower Saxony, Germany

Now
79 °F

Sunny.


Feels Like: 81 °F
Forecast: 65 / 85 °F
Wind: 6 mph from Southeast

Location: Muenster / Osnabrueck

Current Time: Jul 4, 2015 at 9:18:01 AM

Latest Report: Jul 4, 2015 at 8:50 AM


Visibility: 10 mi

Pressure: 30.07 "Hg

Humidity: 70%

Dew point: 68 °F

Location of MelleLocation

Historic Weather in Melle — Graph

°F

Melle temperature yesterday

Maximum temperature yesterday: 88 °F (at 4:20 PM)
Minimum temperature yesterday: 68 °F (at 3:50 AM)
Average temperature yesterday: 78 °F

Past Weeks' High & Low Weather Summary

 TemperatureHumidityPressure
High99 °F (Jul 2, 3:20 PM)100% (Jun 19, 7:20 AM)30.27 "Hg (Jun 19, 7:20 AM)
Low46 °F (Jun 23, 3:50 AM)25% (Jul 1, 2:20 PM)29.65 "Hg (Jun 22, 8:50 PM)
Average65 °F71%30.06 "Hg
* Reported Jun 19 7:20 AM — Jul 4 7:50 AM, Melle, Weather by CustomWeather, © 2015

Note: Actual official high and low records may vary slightly from our data, if they occured in-between our weather recording intervals... More about our weather records

Advertising

Melle weather history for previous 24 hours

 ConditionsComfort  
Time TempWeatherWind HumidityBarometerVisibility
7:50 AM
Sat, Jul 4
75 °FSunny.3 mph78%30.07 "Hg10 mi
7:20 AM73 °FSunny.3 mph83%30.07 "Hg10 mi
6:50 AM68 °FFog.1 mph100%30.09 "HgN/A
6:20 AM66 °FMild.2 mph100%30.09 "Hg6 mi
5:50 AM66 °FMild.1 mph100%30.09 "Hg5 mi
5:20 AM66 °FMild.1 mph100%30.09 "Hg6 mi
4:50 AM66 °FMild.1 mph100%30.09 "HgN/A
4:20 AM68 °FFog.1 mph94%30.12 "HgN/A
3:50 AM70 °FClear.2 mph88%30.12 "Hg10 mi
3:20 AM70 °FClear.5 mph94%30.12 "Hg10 mi
2:50 AM70 °FClear.5 mph88%30.15 "Hg10 mi
2:20 AM70 °FClear.5 mph94%30.15 "Hg10 mi
1:50 AM70 °FClear.3 mph94%30.18 "Hg10 mi
1:20 AM70 °FClear.3 mph94%30.18 "Hg10 mi
12:50 AM72 °FClear.2 mph88%30.18 "Hg10 mi
12:20 AM73 °FClear.5 mph83%30.18 "Hg10 mi
11:50 PM
Fri, Jul 3
73 °FClear.5 mph83%30.18 "Hg10 mi
11:20 PM75 °FClear.6 mph78%30.18 "Hg10 mi
10:50 PM75 °FSunny.6 mph78%30.21 "Hg10 mi
10:20 PM77 °FSunny.6 mph74%30.21 "Hg10 mi
9:50 PM79 °FSunny.6 mph70%30.21 "Hg10 mi
9:20 PM81 °FSunny.3 mph66%30.21 "Hg10 mi
8:50 PM82 °FSunny.3 mph62%30.18 "Hg10 mi
8:20 PM84 °FSunny.6 mph58%30.18 "Hg10 mi
7:50 PM84 °FSunny.8 mph55%30.18 "Hg10 mi
7:20 PM86 °FSunny.9 mph52%30.18 "Hg10 mi
6:50 PM86 °FSunny.9 mph52%30.18 "Hg10 mi
6:20 PM86 °FSunny.9 mph49%30.18 "Hg10 mi
5:50 PM88 °FSunny.7 mph49%30.21 "Hg10 mi
5:20 PM88 °FSunny.8 mph49%30.21 "Hg10 mi
4:50 PM86 °FSunny.7 mph49%30.21 "Hg10 mi
4:20 PM88 °FSunny.6 mph49%30.21 "Hg10 mi
3:50 PM86 °FSunny.7 mph49%30.21 "Hg10 mi
3:20 PM86 °FSunny.6 mph49%30.21 "Hg10 mi
2:50 PM86 °FPassing clouds.5 mph49%30.21 "HgN/A
2:20 PM86 °FPassing clouds.5 mph49%30.24 "HgN/A
1:50 PM84 °FPassing clouds.5 mph51%30.24 "HgN/A
1:20 PM84 °FPassing clouds.5 mph55%30.24 "HgN/A
12:50 PM82 °FSunny.7 mph55%30.24 "Hg10 mi
12:20 PM82 °FSunny.6 mph58%30.24 "Hg10 mi
11:50 AM81 °FPassing clouds.5 mph62%30.27 "HgN/A
11:20 AM79 °FSunny.2 mph61%30.27 "Hg10 mi
10:50 AM79 °FSunny.2 mph65%30.24 "Hg10 mi
10:20 AM75 °FPassing clouds.5 mph69%30.24 "HgN/A
9:50 AM75 °FPassing clouds.1 mph69%30.24 "HgN/A
9:20 AM73 °FScattered clouds.2 mph78%30.24 "HgN/A
Weather by CustomWeather, © 2015

See weather overviewHow to use our weather pages